Wind_Speed
9 9 9 10 10 8 7 6 5 4 4 4 4 4 3 3 3 3 2 2 2 2 2 2 2 2 2 3 4 4 4 3 4 4 4 4 4 4 4 4 5 6
11 11 10 11 10 8 7 7 6 5 5 6 6 4 4 4 4 4 3 3 3 2 2 2 2 2 2 3 3 4 4 4 5 5 5 6 6 6 6 6 6 6
12 12 11 11 9 8 8 8 8 7 7 7 7 5 5 5 5 5 4 4 3 3 3 3 3 2 2 3 3 4 5 5 5 5 6 7 7 7 7 7 7 7
13 12 12 11 9 7 8 9 9 9 9 8 8 7 8 7 7 6 5 5 5 4 4 4 3 3 3 3 4 5 5 6 6 6 6 6 6 7 8 8 8 8
15 14 13 11 10 9 9 10 10 10 10 10 10 10 10 9 9 7 7 7 6 5 5 5 4 4 4 4 4 5 6 6 6 7 7 7 7 7 8 8 8 8
17 16 15 14 13 12 11 11 11 10 10 11 11 11 11 11 10 9 9 8 7 6 6 6 6 5 5 5 5 5 6 6 6 6 7 8 8 8 9 9 8 8
18 18 17 17 17 15 14 13 12 11 10 11 11 12 12 11 11 10 10 9 9 8 7 7 7 6 6 6 6 6 7 7 7 6 6 7 8 8 9 9 9 9
19 18 18 19 19 18 17 16 15 13 11 11 11 11 11 12 12 11 10 10 11 10 10 9 8 8 7 7 7 7 7 7 7 7 7 7 7 8 8 9 10 10
20 19 20 21 21 20 20 19 17 16 15 13 12 11 11 12 12 12 12 12 12 12 11 11 11 10 9 9 9 8 8 8 8 8 8 7 8 8 8 9 9 10
20 21 21 22 22 22 21 20 19 18 17 17 15 14 13 12 12 12 13 13 13 13 13 12 12 12 11 11 10 10 9 9 9 9 8 9 9 8 8 9 9 10
21 21 22 22 23 23 22 21 21 20 19 18 18 17 16 14 13 13 13 13 13 14 14 13 13 13 13 12 12 12 11 11 11 11 10 10 10 9 9 9 10 10
21 21 22 22 23 23 23 22 21 20 20 19 19 18 17 16 15 15 14 13 13 14 14 15 15 15 14 14 14 13 13 13 12 11 11 11 11 11 10 10 11 11
21 21 21 21 21 22 23 22 22 21 20 19 18 18 17 17 16 16 16 15 15 14 15 16 16 16 16 15 15 15 14 14 14 13 13 12 12 12 12 11 12 12
22 22 21 21 21 21 21 21 20 20 19 18 17 16 16 16 16 17 17 17 17 17 17 16 16 17 17 17 16 16 16 16 15 15 15 14 14 14 13 12 13 13
23 22 21 21 21 20 19 19 18 18 18 17 17 16 16 16 16 16 17 18 18 18 19 18 18 18 18 18 18 17 18 17 17 16 16 16 16 15 14 14 14 13
25 24 23 22 22 21 19 19 19 18 18 18 18 18 18 18 18 18 18 19 19 19 19 20 21 20 19 18 19 19 20 19 19 18 18 18 17 16 15 15 15 14
27 26 25 24 24 23 22 21 21 20 20 20 21 21 20 20 21 21 22 22 22 22 21 20 21 23 23 21 20 20 21 21 20 20 20 19 18 17 17 16 16 16
29 29 28 27 27 26 25 24 24 23 23 23 24 24 23 24 25 25 25 25 25 26 25 22 22 25 25 24 23 21 21 21 22 22 22 21 21 20 18 17 17 17
31 32 32 30 29 28 28 27 26 25 25 25 24 24 24 25 26 26 26 27 27 27 27 25 25 26 26 25 25 24 22 23 23 24 23 23 23 22 19 18 18 18
35 35 35 33 31 31 31 30 28 27 27 26 25 25 25 25 26 26 26 27 28 28 28 28 28 27 27 27 27 26 25 24 24 24 23 23 23 22 20 20 21 21
38 37 37 36 34 33 34 33 31 30 29 28 28 28 29 30 29 28 27 28 28 28 29 30 30 29 29 29 29 28 27 27 25 24 23 23 23 23 22 22 22 21
40 39 40 39 37 36 36 35 33 32 31 30 31 32 33 33 31 29 27 27 27 28 28 28 29 31 32 31 31 30 29 29 27 25 23 23 23 22 22 22 22 21
40 38 39 38 37 37 37 35 34 33 31 29 29 29 30 29 29 28 26 26 28 29 30 31 31 32 32 32 33 32 31 30 29 27 25 24 22 22 22 21 21 22
32 31 31 32 31 32 33 32 31 31 28 26 25 25 24 25 26 25 24 26 28 30 31 34 35 34 33 33 35 34 32 30 30 29 27 25 23 23 23 22 22 23
23 24 25 25 24 25 25 24 25 25 23 22 22 21 21 22 22 21 21 25 28 29 30 34 37 37 34 33 35 36 33 30 30 29 27 26 26 26 25 24 24 24
21 22 24 24 22 22 22 23 23 21 20 19 18 17 17 17 16 18 22 26 27 27 28 31 34 35 32 29 31 34 33 30 30 30 29 27 27 28 28 27 27 27
Wind_Direction
222 218 217 221 225 229 228 223 219 219 221 227 230 224 228 240 236 230 217 193 197 221 214 209 227 228 236 248 251 252 257 264 268 276 283 282 280 283 288 292 296 298
227 226 225 226 226 228 232 232 229 224 220 229 234 228 232 243 244 244 238 213 206 217 213 213 227 232 238 248 258 262 266 270 268 274 281 277 281 289 294 299 297 297
231 232 233 237 237 231 231 236 237 234 233 238 242 241 241 244 245 245 245 238 227 221 218 215 216 225 240 249 259 263 261 263 262 262 267 269 275 284 287 290 293 296
233 236 237 242 244 239 238 240 238 237 238 241 243 242 241 242 242 241 241 245 240 231 232 230 223 221 230 239 249 257 260 262 264 261 261 265 269 275 278 282 288 291
233 238 240 241 242 241 242 242 241 239 237 238 239 238 239 240 242 244 244 247 247 244 245 243 238 231 230 240 248 258 265 266 270 273 272 271 270 271 276 278 280 285
233 236 239 241 240 239 240 243 245 244 239 238 239 238 239 241 241 244 246 247 249 249 251 250 250 247 242 246 251 258 268 270 271 279 282 280 275 273 276 278 278 282
235 234 236 240 241 240 241 242 244 245 242 242 243 241 242 244 242 242 242 245 248 249 252 253 253 254 252 249 250 252 260 267 269 274 279 280 279 278 279 280 281 282
239 237 236 237 240 241 242 243 244 245 245 244 246 246 245 246 244 243 242 244 246 245 247 250 252 255 255 252 251 250 251 257 263 268 270 274 278 280 283 284 284 284
240 239 237 236 238 239 240 242 243 244 245 245 244 243 243 245 244 243 242 242 245 244 244 247 251 254 254 254 255 255 255 256 259 262 265 270 273 275 282 288 289 287
240 239 238 236 236 237 237 238 240 240 242 244 245 243 240 240 240 241 241 240 242 244 244 245 248 251 252 253 255 256 257 260 262 264 266 268 269 271 276 282 285 286
238 239 238 236 235 236 235 235 236 236 237 239 241 243 243 241 240 241 242 242 242 243 244 245 246 248 249 250 251 253 255 258 261 264 266 267 269 271 272 274 277 280
236 237 239 237 235 235 234 234 235 235 236 237 239 241 242 243 243 243 244 244 244 244 245 246 246 248 250 250 249 248 249 252 256 260 263 265 267 269 268 268 271 273
237 237 238 239 238 237 235 234 235 236 238 241 242 243 244 245 247 248 247 245 245 247 248 248 247 247 248 250 251 249 246 247 251 255 257 260 264 264 264 266 268 269
240 237 237 238 238 238 237 236 236 238 240 243 247 249 250 251 252 253 254 251 248 249 250 250 250 248 248 248 249 251 251 247 247 249 250 253 257 258 258 260 262 265
241 239 238 238 238 238 238 238 237 239 241 243 248 252 254 256 257 258 260 259 254 251 250 251 251 250 249 248 247 248 251 251 249 249 249 249 251 253 255 255 257 260
240 240 241 241 240 238 237 239 239 240 242 245 247 250 253 257 259 260 260 261 259 255 252 252 254 254 251 250 249 247 248 250 250 250 250 249 249 250 251 252 254 256
239 240 239 239 240 239 238 240 241 242 243 245 248 250 253 257 260 260 259 258 258 257 252 249 253 256 253 251 250 248 246 246 247 248 248 248 249 249 249 251 252 251
241 241 238 236 237 238 238 240 242 244 244 246 250 253 256 259 260 259 257 257 259 260 258 253 251 253 253 251 250 248 246 244 243 244 246 246 248 249 251 255 257 256
243 243 242 238 235 236 239 240 242 244 247 250 252 254 256 259 259 258 256 259 262 263 263 258 252 251 252 252 250 248 246 245 243 242 242 245 248 250 252 254 255 255
242 243 244 241 238 238 242 245 247 247 249 252 254 256 257 258 258 257 257 261 264 265 263 257 250 247 249 250 250 247 246 247 247 245 243 244 247 249 249 249 250 251
242 244 244 242 241 243 246 250 251 250 250 251 253 255 255 254 254 255 258 262 264 264 264 259 253 249 250 250 249 246 245 245 248 248 245 244 245 245 246 246 249 251
243 244 245 244 244 245 248 250 251 252 254 253 252 252 251 251 252 251 254 259 261 262 264 263 258 253 252 252 250 246 243 243 244 246 245 245 245 246 246 247 248 249
241 242 243 244 245 245 246 248 250 252 253 251 249 250 250 249 248 247 251 256 258 261 264 263 261 258 255 254 252 247 242 241 242 243 244 246 247 247 247 248 249 251
234 237 238 240 242 243 244 246 246 246 246 243 243 245 247 247 248 249 254 259 259 261 263 261 261 262 261 257 252 247 243 241 240 242 244 247 250 250 250 249 249 251
236 236 236 238 240 241 241 242 242 242 241 242 242 242 243 246 251 257 263 266 265 263 260 258 257 259 261 259 251 246 244 241 239 242 245 247 251 253 253 253 253 254
248 245 244 243 243 243 241 244 247 247 247 249 250 249 247 248 258 270 273 272 269 265 260 259 258 255 254 255 252 247 244 242 240 241 243 245 250 254 255 255 256 257
Height
5949 5950 5950 5952 5953 5953 5952 5953 5954 5955 5956 5956 5956 5957 5957 5958 5959 5960 5960 5961 5961 5961 5962 5962 5963 5963 5964 5963 5963 5963 5963 5963 5963 5964 5964 5964 5965 5965 5965 5966 5967 5967
5949 5950 5951 5951 5952 5952 5952 5952 5953 5955 5956 5956 5956 5957 5957 5958 5959 5959 5960 5960 5960 5961 5962 5962 5963 5963 5964 5964 5964 5964 5964 5963 5964 5964 5964 5964 5964 5964 5965 5965 5966 5966
5949 5949 5950 5950 5951 5951 5951 5952 5953 5954 5955 5955 5956 5956 5956 5957 5958 5958 5959 5960 5960 5961 5961 5962 5963 5963 5963 5963 5963 5964 5964 5964 5964 5964 5964 5964 5964 5964 5965 5965 5966 5966
5947 5948 5948 5949 5950 5950 5951 5951 5952 5953 5954 5954 5955 5955 5956 5957 5957 5958 5958 5959 5960 5960 5961 5961 5962 5963 5963 5963 5963 5963 5964 5964 5964 5964 5964 5964 5964 5964 5965 5965 5965 5966
5946 5946 5947 5948 5949 5949 5950 5951 5951 5952 5953 5954 5954 5955 5956 5956 5957 5957 5958 5959 5959 5960 5960 5961 5961 5962 5963 5963 5963 5963 5963 5964 5964 5964 5964 5964 5964 5965 5965 5965 5965 5965
5945 5945 5946 5947 5947 5948 5949 5950 5950 5951 5952 5953 5953 5954 5955 5956 5956 5957 5957 5958 5959 5959 5960 5960 5961 5962 5962 5962 5963 5963 5963 5963 5964 5964 5964 5964 5964 5965 5965 5965 5964 5965
5944 5945 5945 5946 5946 5947 5948 5949 5950 5951 5951 5952 5952 5953 5954 5954 5955 5956 5957 5957 5958 5959 5959 5960 5960 5961 5962 5962 5962 5963 5963 5963 5963 5963 5964 5964 5964 5964 5964 5965 5964 5964
5943 5944 5944 5944 5945 5946 5947 5948 5949 5950 5950 5951 5951 5952 5953 5953 5954 5955 5956 5956 5957 5958 5958 5959 5960 5960 5961 5962 5962 5962 5962 5963 5963 5963 5963 5963 5964 5964 5964 5964 5964 5964
5941 5942 5943 5943 5943 5944 5945 5946 5947 5948 5949 5949 5950 5951 5952 5952 5953 5954 5954 5955 5956 5956 5957 5958 5958 5959 5960 5961 5961 5961 5962 5962 5962 5962 5962 5963 5963 5963 5963 5963 5964 5964
5938 5939 5941 5941 5942 5942 5943 5944 5945 5946 5947 5948 5949 5950 5950 5951 5952 5952 5953 5954 5954 5955 5956 5956 5957 5958 5958 5959 5960 5960 5960 5961 5961 5961 5962 5962 5962 5962 5962 5963 5963 5963
5936 5937 5938 5939 5940 5941 5941 5942 5943 5944 5945 5946 5947 5947 5948 5949 5950 5951 5952 5952 5953 5953 5954 5955 5955 5956 5957 5957 5958 5958 5959 5959 5960 5960 5960 5961 5961 5961 5961 5962 5962 5962
5935 5936 5937 5937 5938 5939 5940 5941 5942 5942 5943 5944 5944 5945 5946 5947 5948 5949 5949 5950 5951 5952 5952 5953 5953 5954 5955 5956 5956 5957 5957 5958 5958 5959 5959 5959 5960 5960 5960 5961 5961 5961
5933 5934 5935 5936 5937 5937 5938 5939 5940 5941 5941 5942 5942 5943 5944 5945 5946 5946 5947 5948 5949 5950 5950 5951 5952 5952 5953 5954 5954 5955 5955 5956 5956 5957 5957 5957 5958 5958 5959 5959 5959 5959
5931 5932 5933 5934 5935 5936 5936 5937 5938 5939 5939 5940 5940 5941 5942 5943 5944 5944 5945 5946 5947 5947 5948 5949 5950 5950 5951 5951 5952 5953 5953 5954 5954 5955 5955 5955 5956 5957 5957 5958 5958 5958
5929 5930 5931 5932 5933 5934 5935 5936 5936 5937 5937 5938 5938 5939 5940 5941 5941 5942 5943 5943 5944 5945 5946 5946 5947 5948 5948 5949 5950 5951 5951 5952 5952 5953 5953 5953 5954 5954 5955 5955 5956 5956
5927 5928 5930 5931 5931 5932 5933 5933 5934 5935 5935 5936 5937 5937 5938 5939 5939 5940 5940 5940 5941 5942 5943 5943 5944 5945 5946 5947 5948 5948 5949 5949 5950 5950 5951 5951 5951 5952 5952 5953 5953 5954
5924 5925 5926 5928 5929 5929 5930 5931 5931 5932 5933 5934 5934 5935 5936 5936 5937 5937 5937 5937 5938 5938 5939 5941 5942 5942 5943 5944 5945 5946 5946 5946 5947 5947 5948 5948 5949 5950 5950 5950 5950 5951
5922 5922 5922 5923 5925 5926 5927 5927 5928 5929 5930 5931 5932 5932 5933 5934 5934 5934 5934 5934 5934 5935 5936 5938 5939 5939 5939 5941 5942 5943 5943 5943 5943 5944 5945 5946 5947 5947 5948 5948 5948 5949
5918 5918 5919 5920 5921 5922 5923 5923 5925 5926 5927 5928 5929 5930 5931 5931 5932 5931 5931 5931 5932 5933 5934 5935 5936 5936 5936 5937 5938 5939 5940 5940 5940 5941 5942 5943 5944 5945 5946 5947 5947 5947
5914 5915 5916 5917 5918 5919 5919 5920 5921 5922 5924 5925 5926 5927 5928 5928 5928 5928 5929 5929 5930 5930 5930 5931 5931 5932 5932 5933 5934 5936 5937 5937 5937 5938 5939 5940 5940 5942 5943 5944 5943 5944
5910 5911 5913 5914 5914 5915 5916 5917 5918 5920 5921 5922 5923 5924 5925 5925 5924 5925 5925 5926 5926 5927 5927 5927 5928 5928 5929 5929 5930 5932 5933 5934 5934 5936 5936 5937 5937 5938 5940 5940 5941 5941
5906 5907 5908 5909 5910 5911 5912 5914 5915 5916 5917 5918 5918 5919 5920 5920 5920 5921 5922 5922 5922 5922 5922 5923 5924 5924 5925 5926 5926 5927 5929 5930 5931 5933 5933 5934 5935 5936 5936 5937 5938 5939
5901 5902 5903 5904 5905 5906 5908 5910 5911 5912 5913 5913 5913 5914 5915 5916 5916 5917 5918 5919 5918 5918 5918 5919 5920 5920 5921 5922 5922 5923 5925 5926 5927 5929 5930 5931 5932 5933 5933 5934 5935 5935
5897 5898 5899 5901 5901 5902 5904 5906 5907 5908 5908 5909 5910 5911 5912 5912 5912 5914 5916 5915 5914 5914 5915 5916 5915 5915 5916 5917 5917 5919 5921 5922 5924 5925 5927 5928 5929 5929 5930 5931 5931 5932
5894 5895 5896 5898 5899 5900 5901 5902 5902 5903 5904 5905 5906 5907 5908 5909 5910 5912 5913 5912 5911 5911 5911 5911 5911 5911 5911 5912 5913 5914 5916 5918 5920 5922 5924 5925 5925 5925 5926 5927 5928 5928
5891 5892 5893 5895 5896 5897 5899 5898 5898 5898 5899 5900 5902 5903 5905 5907 5908 5910 5910 5909 5908 5907 5907 5907 5907 5907 5907 5908 5908 5910 5912 5914 5916 5918 5920 5922 5922 5921 5922 5923 5923 5924